Date,TemperatureHighF,TemperatureAvgF,TemperatureLowF,DewpointHighF,DewpointAvgF,DewpointLowF,HumidityHigh,HumidityAvg,HumidityLow,PressureMaxIn,PressureMinIn,WindSpeedMaxMPH,WindSpeedAvgMPH,GustSpeedMaxMPH,PrecipitationSumIn
2013-1-1,28.8,25.3,21.6,24.8,22.0,19.4,93,87,78,30.48,30.34,3,0,3,0.00
2013-1-2,39.6,26.1,17.6,26.1,20.7,15.7,94,81,52,30.46,30.35,11,1,11,0.01
2013-1-3,37.8,22.7,14.0,24.0,17.6,12.6,95,82,54,30.36,30.21,8,1,8,0.00
2013-1-4,32.5,26.4,17.6,27.6,23.3,16.0,95,88,75,30.34,30.26,5,1,5,0.00
2013-1-5,47.1,32.0,25.3,31.2,25.9,22.1,96,79,48,30.29,30.12,10,1,10,0.04
2013-1-6,36.5,31.0,27.7,30.9,28.1,25.6,95,89,78,30.13,30.03,5,0,5,0.01
2013-1-7,36.0,31.3,27.9,33.6,30.1,26.4,99,95,87,30.04,29.87,8,1,8,0.01
2013-1-8,41.5,34.9,30.6,41.0,34.0,30.3,99,97,86,30.10,29.92,7,1,7,0.23
2013-1-9,46.6,37.1,32.5,40.5,35.4,32.0,99,94,78,29.93,29.64,9,1,10,0.25
2013-1-10,33.4,30.0,24.6,32.4,27.9,22.9,99,92,78,29.82,29.74,1,0,1,0.01
2013-1-11,38.8,23.9,16.5,27.6,20.0,14.4,94,86,59,30.17,29.81,0,0,0,0.04
2013-1-12,26.8,21.1,16.3,21.9,18.5,14.2,94,89,78,30.22,30.15,0,0,0,0.00
2013-1-13,37.6,20.9,14.0,24.0,17.0,10.7,96,85,53,30.33,30.21,7,0,7,0.01
2013-1-14,24.8,21.7,17.2,21.8,18.8,14.6,93,88,82,30.39,30.25,0,0,0,0.00
2013-1-15,41.7,27.5,23.2,31.0,23.9,21.5,95,87,61,30.52,30.38,7,1,7,0.02
2013-1-16,43.2,28.6,20.1,28.7,23.8,19.1,97,84,55,30.53,30.45,8,1,8,0.06
2013-1-17,43.3,28.3,17.6,29.2,22.6,16.7,98,81,51,30.48,30.31,10,1,10,0.01
2013-1-18,49.8,28.8,20.7,32.1,23.8,19.7,97,84,49,30.32,30.19,7,1,7,0.00
2013-1-19,47.1,28.2,18.7,30.5,23.4,17.8,97,84,48,30.37,30.28,8,1,8,0.01
2013-1-20,47.7,29.7,20.7,30.7,24.4,19.5,97,83,50,30.43,30.30,8,1,8,0.00
2013-1-21,50.2,30.1,19.9,30.2,23.9,19.2,97,81,45,30.32,30.18,8,1,8,0.00
2013-1-22,46.0,28.2,21.4,28.8,23.7,20.6,97,84,50,30.23,30.07,8,1,8,0.00
2013-1-23,40.6,30.4,22.5,34.3,27.5,21.5,99,90,65,30.09,29.90,8,1,8,0.06
2013-1-24,56.5,38.5,30.6,43.9,34.4,30.3,99,87,55,30.18,30.01,4,1,5,0.01
2013-1-25,39.9,36.0,33.4,38.9,35.5,32.5,99,98,95,30.11,29.88,4,0,4,0.31
2013-1-26,41.0,35.4,32.0,38.4,34.8,31.5,99,97,88,29.91,29.84,4,0,5,0.07
2013-1-27,41.5,33.8,29.7,39.7,32.6,29.2,99,96,82,29.94,29.89,2,0,2,0.02
2013-1-28,38.3,31.9,28.4,34.7,30.9,28.2,99,96,83,29.90,29.79,2,0,2,0.02
2013-1-29,42.3,35.0,31.5,37.5,33.2,31.2,99,93,82,30.14,29.80,8,1,8,0.38
2013-1-30,48.7,36.4,31.8,44.2,34.9,31.6,99,95,77,30.20,30.08,3,0,3,0.56
2013-1-31,49.6,37.0,33.6,46.5,36.1,33.4,99,97,81,30.23,30.14,2,0,2,0.04
2013-2-1,59.9,41.9,33.8,47.5,37.4,33.6,99,87,49,30.30,30.14,5,1,7,0.01
2013-2-2,53.6,39.7,31.5,39.9,34.2,30.7,99,82,56,30.42,30.19,9,2,9,0.00
2013-2-3,54.1,36.9,28.9,39.2,32.2,28.5,99,85,50,30.20,30.05,8,1,8,0.00
2013-2-4,52.9,39.2,33.1,40.8,33.5,30.9,95,82,53,30.09,29.94,8,1,10,0.00
2013-2-5,55.4,38.6,33.4,41.5,35.7,31.5,98,90,58,29.94,29.79,11,1,11,0.05
2013-2-6,50.5,38.1,33.1,41.6,34.2,29.6,99,87,60,30.04,29.91,6,1,6,0.02
2013-2-7,45.1,35.1,30.9,37.4,32.6,29.4,98,91,71,29.97,29.87,8,1,8,0.02
2013-2-8,37.2,33.7,29.3,34.9,31.9,27.8,98,93,85,30.05,29.97,8,1,8,0.00
2013-2-9,38.8,33.0,28.9,31.7,29.6,26.7,95,87,71,30.10,29.99,7,1,7,0.01
2013-2-10,40.1,33.0,27.9,32.1,29.0,26.1,96,86,72,30.20,30.10,4,0,4,0.00
2013-2-11,49.8,35.5,28.0,32.8,28.6,25.8,92,78,47,30.17,30.10,9,2,9,0.00
2013-2-12,50.9,39.0,32.4,36.8,32.2,29.2,89,77,56,30.25,30.13,8,1,8,0.00
2013-2-13,52.0,42.7,33.8,37.4,34.4,30.1,87,74,53,30.27,30.12,17,3,17,0.00
2013-2-14,53.8,38.5,28.4,36.3,31.5,26.8,95,78,46,30.44,30.27,11,1,11,0.00
2013-2-15,63.5,43.4,32.4,38.5,33.4,29.5,94,71,39,30.45,30.20,9,2,9,0.00
2013-2-16,54.9,39.8,27.9,40.7,33.6,26.9,97,80,53,30.22,29.89,14,2,14,0.25
2013-2-17,44.4,38.0,32.2,32.3,30.2,28.1,90,74,57,30.06,29.94,14,2,14,0.02
2013-2-18,45.7,35.3,27.1,32.2,28.8,25.7,98,79,50,30.06,29.72,8,2,8,0.00
2013-2-19,41.7,35.3,32.0,37.4,32.0,28.3,94,88,78,29.82,29.65,8,1,8,0.04
2013-2-20,50.2,35.3,27.0,37.3,28.1,21.8,91,77,38,29.95,29.82,10,1,10,0.00
2013-2-21,38.3,31.3,25.3,31.6,28.0,22.7,97,88,67,30.00,29.94,8,1,8,0.00
2013-2-22,40.3,34.9,29.3,36.8,33.6,28.8,99,95,85,29.98,29.68,10,1,11,0.46
2013-2-23,47.5,35.5,28.4,32.9,28.7,25.0,92,77,52,30.18,29.71,15,3,16,0.02
2013-2-24,50.9,35.5,27.3,34.6,27.8,25.0,93,76,42,30.28,30.05,8,2,8,0.00
2013-2-25,49.5,36.9,28.6,40.3,30.5,24.9,95,79,58,30.10,29.91,14,2,16,0.17
2013-2-26,51.8,37.0,28.9,30.8,26.0,22.8,85,67,35,30.26,30.09,7,2,7,0.00
2013-2-27,55.4,39.8,30.4,31.9,27.2,23.4,86,64,32,30.24,30.17,10,2,10,0.00
2013-2-28,40.1,38.2,35.8,38.2,36.1,30.6,99,92,79,30.34,30.22,9,1,9,0.63
2013-3-1,48.7,41.1,34.9,45.9,40.0,34.6,99,96,87,30.37,30.28,5,1,5,0.04
2013-3-2,46.8,40.9,35.1,43.6,39.7,34.8,99,95,83,30.29,29.91,6,1,6,0.20
2013-3-3,47.7,37.7,27.5,42.5,28.0,22.2,99,70,41,30.12,29.89,23,4,23,0.08
2013-3-4,54.5,35.9,23.4,30.2,22.9,15.5,94,65,26,30.23,30.02,10,2,10,0.00
2013-3-5,46.0,35.3,24.8,31.2,26.3,20.7,90,71,51,30.04,29.72,7,1,7,0.00
2013-3-6,60.8,40.8,34.9,45.0,35.7,29.8,97,83,52,29.86,29.54,14,2,14,0.51
2013-3-7,57.7,41.6,31.6,40.9,32.6,27.8,99,75,37,30.01,29.86,9,2,9,0.00
2013-3-8,58.6,39.2,26.6,36.3,29.7,25.4,97,73,37,30.06,29.91,13,2,13,0.00
2013-3-9,57.2,38.9,28.4,36.1,30.6,26.1,92,75,41,30.35,30.06,8,2,11,0.00
2013-3-10,52.7,38.2,27.0,37.3,32.2,25.5,96,81,50,30.37,30.20,8,2,9,0.11
2013-3-11,60.1,42.4,34.7,45.1,35.2,29.8,99,79,39,30.25,30.17,13,1,13,0.01
2013-3-12,50.2,41.8,35.2,44.6,38.5,30.9,97,88,76,30.18,30.05,8,1,8,0.06
2013-3-13,62.4,49.2,39.7,47.9,43.6,39.2,99,83,54,30.17,30.07,10,2,10,0.01
2013-3-14,59.2,50.5,39.6,46.7,42.7,38.8,97,76,58,30.12,29.96,8,2,8,0.00
2013-3-15,65.7,51.5,44.1,46.4,40.8,35.1,90,70,37,30.12,30.02,17,2,17,0.00
2013-3-16,56.7,44.4,35.1,43.3,38.4,32.9,93,81,51,30.03,29.68,20,2,20,0.26
2013-3-17,49.3,37.3,32.4,33.5,28.1,20.6,94,72,36,30.02,29.75,24,5,24,0.05
2013-3-18,52.0,38.4,30.2,37.6,28.0,18.9,97,71,33,30.11,29.94,24,3,24,0.13
2013-3-19,60.1,41.4,25.3,33.7,26.9,19.5,87,60,30,30.21,29.80,12,3,12,0.00
2013-3-20,61.7,44.2,37.8,48.2,38.0,29.6,95,79,56,29.81,29.47,17,3,25,0.54
2013-3-21,46.4,36.3,30.6,33.3,27.7,23.1,94,71,50,30.00,29.81,17,3,17,0.01
2013-3-22,47.3,33.4,26.8,30.0,27.4,23.7,96,80,47,30.20,29.97,17,2,17,0.05
2013-3-23,51.3,34.7,25.0,33.0,26.4,18.0,96,75,33,30.27,30.18,11,2,11,0.04
2013-3-24,55.9,36.2,23.5,27.2,21.2,8.5,93,62,19,30.27,30.09,11,2,11,0.00
2013-3-25,61.0,40.3,24.6,30.7,25.7,20.6,90,61,26,30.12,29.91,11,2,11,0.00
2013-3-26,67.3,48.3,31.5,37.5,32.3,27.4,88,59,27,29.94,29.86,11,2,12,0.00
2013-3-27,54.3,44.3,37.2,42.3,36.9,32.7,85,76,56,29.94,29.88,8,1,8,0.00
2013-3-28,66.2,51.0,39.9,46.3,42.1,36.4,94,74,44,30.04,29.92,8,2,8,0.01
2013-3-29,65.1,53.4,44.6,49.4,45.2,41.8,93,75,51,30.17,30.03,8,2,9,0.02
2013-3-30,73.6,52.0,37.8,47.4,37.9,20.2,97,68,18,30.25,30.06,10,2,10,0.00
2013-3-31,79.5,52.9,34.3,43.8,33.6,7.2,94,59,10,30.07,29.84,11,2,11,0.00
2013-4-1,72.5,50.1,36.9,45.5,38.2,33.8,91,68,35,29.94,29.86,12,2,13,0.00
2013-4-2,73.8,59.2,42.3,48.6,43.9,40.1,92,60,36,30.08,29.96,13,3,13,0.00
2013-4-3,74.1,55.4,41.7,49.4,40.8,33.1,93,64,26,30.08,29.96,15,2,15,0.00
2013-4-4,58.3,50.1,42.3,50.6,43.6,38.6,96,79,61,29.97,29.71,12,2,14,0.18
2013-4-5,67.1,52.4,44.6,50.9,45.3,38.5,98,80,39,29.88,29.81,14,2,14,0.09
2013-4-6,60.3,49.3,43.2,48.7,42.8,36.4,98,81,47,29.89,29.82,14,2,14,0.38
2013-4-7,60.1,47.0,40.1,47.8,38.6,28.1,97,77,34,29.83,29.60,19,2,30,0.28
2013-4-8,52.9,41.8,33.8,42.6,35.3,30.1,89,79,52,30.14,29.74,13,2,13,0.05
2013-4-9,61.9,43.9,27.7,36.0,31.0,25.7,97,66,34,30.27,30.14,14,2,14,0.01
2013-4-10,59.2,49.8,42.3,51.2,39.9,34.8,90,70,54,30.17,29.84,15,3,18,0.10
2013-4-11,57.9,45.8,36.7,39.7,33.4,30.1,83,64,40,30.10,30.01,17,3,17,0.00
2013-4-12,62.8,45.3,30.7,41.6,33.9,26.6,96,71,29,30.05,29.61,12,2,12,0.35
2013-4-13,48.6,41.4,36.5,41.2,31.5,23.7,98,70,41,29.82,29.58,23,6,26,0.13
2013-4-14,52.3,39.4,32.2,38.8,32.2,27.4,94,77,45,29.89,29.80,11,2,11,0.07
2013-4-15,59.4,42.6,29.5,34.7,24.9,18.3,97,57,24,29.97,29.80,16,3,16,0.00
2013-4-16,58.3,40.7,28.6,21.7,15.9,8.5,59,41,18,30.22,29.96,14,3,14,0.00
2013-4-17,58.1,41.4,26.8,27.9,20.0,8.6,76,48,18,30.32,30.22,19,3,19,0.00
2013-4-18,57.7,41.8,28.0,34.4,27.6,18.8,78,59,37,30.31,30.15,10,1,10,0.00
2013-4-19,54.0,45.5,39.6,49.3,42.9,34.1,98,91,69,30.15,29.93,9,1,9,0.47
2013-4-20,61.2,51.1,44.4,45.2,39.5,33.7,97,67,40,30.08,29.96,17,3,17,0.01
2013-4-21,60.6,48.3,36.5,42.8,37.7,33.0,92,69,41,30.13,29.96,23,3,23,0.06
2013-4-22,59.9,43.9,30.6,33.6,26.1,13.9,89,56,21,30.35,30.13,17,3,17,0.00
2013-4-23,64.8,43.9,27.9,33.5,26.2,17.9,87,57,20,30.30,30.13,10,2,10,0.00
2013-4-24,71.8,48.6,32.0,34.9,28.4,23.1,81,55,21,30.23,29.95,12,2,12,0.00
2013-4-25,76.1,53.9,35.2,41.4,34.5,22.0,89,56,17,30.04,29.92,17,3,17,0.00
2013-4-26,80.2,58.1,38.7,45.9,39.7,34.8,88,57,25,30.17,30.03,13,3,13,0.00
2013-4-27,68.7,56.9,42.4,50.4,41.3,29.3,88,60,29,30.12,29.99,20,3,20,0.00
2013-4-28,69.6,56.0,45.9,48.2,40.0,31.0,93,59,31,30.07,29.86,13,3,13,0.07
2013-4-29,59.0,49.3,37.4,48.7,32.7,15.1,96,58,23,29.93,29.75,27,6,27,0.34
2013-4-30,52.0,39.1,31.1,36.1,28.1,19.1,96,67,39,30.30,29.92,21,3,21,0.07
2013-5-1,66.4,39.9,28.6,36.6,29.4,17.1,98,75,20,30.53,30.29,11,2,12,0.01
2013-5-2,78.1,53.0,32.0,37.9,30.3,7.7,89,52,11,30.53,30.18,10,3,11,0.01
2013-5-3,75.2,58.9,46.2,42.9,38.5,31.8,73,51,28,30.19,30.09,10,2,10,0.00
2013-5-4,78.6,61.6,44.6,45.3,35.4,23.8,84,47,17,30.17,29.99,16,5,16,0.00
2013-5-5,87.8,73.3,57.4,43.7,36.5,22.0,58,32,13,29.96,29.76,11,4,11,0.00
2013-5-6,90.3,67.6,47.7,48.0,37.9,13.3,75,44,10,29.87,29.68,13,3,13,0.00
2013-5-7,90.9,72.3,47.7,49.7,43.1,34.6,81,41,18,29.85,29.73,14,4,14,0.00
2013-5-8,90.3,70.4,51.6,52.3,45.7,39.3,73,47,21,29.96,29.84,11,3,11,0.00
2013-5-9,92.7,70.6,52.7,56.7,49.5,38.5,84,54,20,30.06,29.94,14,3,14,0.00
2013-5-10,96.8,64.3,50.7,55.2,45.2,17.8,85,60,10,30.15,30.03,11,2,11,0.00
2013-5-11,97.3,70.5,53.8,54.3,48.6,38.6,80,52,18,30.12,29.97,11,2,11,0.00
2013-5-12,90.7,71.8,56.5,57.1,51.9,43.5,82,55,25,30.02,29.90,14,3,14,0.00
2013-5-13,82.2,66.5,48.2,64.3,52.2,45.8,95,63,36,30.08,29.81,35,3,35,0.12
2013-5-14,72.9,56.9,45.9,48.1,41.3,33.1,95,61,27,30.12,29.98,12,3,13,0.00
2013-5-15,77.4,59.1,42.1,45.3,38.0,18.8,84,52,16,30.04,29.85,11,2,11,0.00
2013-5-16,75.4,59.1,50.9,49.1,44.8,38.8,81,62,35,29.92,29.79,9,2,10,0.00
2013-5-17,75.9,58.9,43.9,50.4,44.9,40.5,94,65,33,29.93,29.79,14,3,18,0.00
2013-5-18,62.4,53.8,47.3,47.9,44.5,40.5,83,72,52,30.09,29.93,8,2,8,0.00
2013-5-19,70.5,56.5,46.6,48.3,45.1,42.4,91,69,41,30.20,30.09,11,2,17,0.00
2013-5-20,83.3,63.2,46.2,50.5,44.9,36.8,93,59,24,30.23,29.85,12,3,12,0.00
2013-5-21,77.2,55.8,45.0,53.7,46.1,42.5,96,73,37,29.85,29.55,27,3,27,0.07
2013-5-22,59.5,45.5,37.9,44.4,38.0,34.5,97,77,44,29.94,29.72,14,4,15,0.04
2013-5-23,72.0,51.7,35.2,42.2,34.5,19.0,96,61,18,29.97,29.84,13,3,13,0.06
2013-5-24,59.2,47.2,37.2,47.8,40.8,33.4,97,79,56,30.01,29.89,8,2,12,0.15
2013-5-25,73.0,53.6,37.8,45.1,40.1,33.6,98,67,29,29.99,29.90,11,3,11,0.01
2013-5-26,72.7,56.4,40.1,49.2,43.8,37.7,93,67,38,29.93,29.84,15,3,18,0.00
2013-5-27,61.5,53.5,50.9,51.7,48.7,46.8,96,84,69,29.93,29.74,8,1,8,0.06
2013-5-28,70.9,57.1,50.2,52.5,49.0,44.9,98,77,43,29.81,29.73,17,3,17,0.01
2013-5-29,64.4,52.8,45.9,53.3,47.9,43.7,97,84,58,29.87,29.65,13,2,17,0.14
2013-5-30,69.3,54.0,45.1,49.4,44.6,38.7,98,74,33,30.09,29.87,11,2,13,0.04
2013-5-31,75.7,55.4,42.4,48.2,40.6,31.4,92,61,23,30.22,30.09,13,3,13,0.00
2013-6-1,74.7,62.3,44.2,49.4,43.3,38.6,86,54,32,30.19,29.93,8,2,9,0.00
2013-6-2,72.7,57.3,45.1,53.8,45.7,40.8,94,68,41,29.93,29.83,18,3,18,0.08
2013-6-3,81.9,60.9,46.8,54.1,45.7,32.1,98,66,21,29.99,29.91,15,3,15,0.01
2013-6-4,86.4,64.6,45.9,50.8,43.5,31.7,92,56,18,30.07,29.98,11,3,11,0.00
2013-6-5,91.0,68.5,49.5,51.9,45.9,33.2,92,54,17,30.04,29.90,15,3,15,0.00
2013-6-6,95.0,72.1,54.0,57.9,50.2,39.6,82,53,19,29.98,29.84,11,3,11,0.00
2013-6-7,88.3,72.1,56.1,58.4,47.8,22.1,88,50,20,29.92,29.81,15,4,17,0.00
2013-6-8,87.6,68.7,52.0,49.2,40.6,26.1,74,43,16,30.03,29.89,15,4,15,0.00
2013-6-9,85.5,66.1,49.8,50.9,42.2,25.3,84,49,15,29.93,29.80,18,4,18,0.00
2013-6-10,88.2,65.7,46.0,47.8,39.0,22.0,83,47,14,29.86,29.68,13,3,13,0.00
2013-6-11,78.1,62.7,48.6,47.6,40.5,34.2,81,49,26,29.99,29.74,16,4,16,0.00
2013-6-12,76.5,63.8,50.9,44.8,41.2,34.8,64,47,29,30.02,29.93,16,4,18,0.01
2013-6-13,73.8,61.4,49.8,46.5,41.3,37.1,81,52,31,30.03,29.96,17,4,17,0.00
2013-6-14,79.7,61.9,47.7,46.0,40.2,30.3,79,51,20,30.12,30.01,15,3,15,0.00
2013-6-15,91.2,66.2,43.9,47.1,37.1,15.4,90,48,10,30.02,29.88,11,3,14,0.00
2013-6-16,100.2,72.2,48.6,49.0,38.1,19.0,81,41,10,29.99,29.82,7,2,8,0.00
2013-6-17,93.0,74.7,57.6,52.4,48.1,41.8,75,44,22,29.98,29.75,12,3,13,0.00
2013-6-18,80.4,65.7,55.8,56.2,51.3,47.4,81,62,44,29.86,29.76,16,5,22,0.02
2013-6-19,57.0,52.4,47.7,55.1,50.8,46.8,99,95,80,29.89,29.72,13,2,14,0.89
2013-6-20,64.4,54.0,46.8,52.6,47.3,42.6,99,81,52,30.02,29.85,13,2,13,0.57
2013-6-21,73.2,57.3,48.0,52.6,48.3,44.9,97,75,40,30.06,30.01,14,2,14,0.01
2013-6-22,79.0,62.4,47.1,52.6,47.0,39.1,96,64,28,30.05,29.89,10,3,11,0.00
2013-6-23,80.8,65.7,47.3,54.3,49.4,45.0,96,62,33,29.90,29.57,11,2,11,0.00
2013-6-24,72.9,61.9,56.5,61.3,56.9,50.9,98,85,60,29.74,29.56,11,2,12,0.33
2013-6-25,75.7,60.6,52.7,62.8,57.4,52.4,99,90,58,29.88,29.73,13,2,13,0.30
2013-6-26,70.9,62.0,55.8,64.3,59.3,55.5,99,92,74,30.09,29.87,6,2,6,0.15
2013-6-27,93.0,72.0,54.9,65.3,59.8,54.3,99,71,33,30.14,30.06,10,3,11,0.00
2013-6-28,97.7,77.6,60.1,68.9,61.4,57.5,94,64,32,30.18,29.99,8,3,8,0.00
2013-6-29,93.9,77.9,63.5,68.9,63.6,59.8,90,66,38,30.05,29.88,18,4,18,0.00
2013-6-30,99.7,80.2,61.9,67.2,61.3,56.1,93,59,28,30.04,29.91,8,3,8,0.00
2013-7-1,111.9,84.0,63.3,71.9,63.0,50.8,91,57,19,29.98,29.82,7,2,8,0.00
2013-7-2,103.8,83.1,67.1,74.6,65.8,62.4,91,61,31,30.00,29.86,8,3,13,0.00
2013-7-3,96.1,79.3,66.4,68.2,58.8,47.4,95,57,24,29.99,29.86,13,3,13,0.00
2013-7-4,90.3,73.7,59.7,59.8,50.9,36.4,87,53,20,29.92,29.78,17,3,17,0.00
2013-7-5,85.8,69.0,54.1,53.5,49.5,41.5,89,56,27,29.86,29.76,17,3,17,0.00
2013-7-6,90.9,70.7,51.4,58.3,50.6,43.8,90,56,24,29.89,29.74,11,3,14,0.00
2013-7-7,95.7,74.0,54.9,58.9,49.2,23.4,92,51,11,29.86,29.73,10,3,11,0.00
2013-7-8,90.5,73.3,59.0,58.8,52.3,41.7,92,54,23,30.02,29.78,16,4,16,0.02
2013-7-9,97.7,75.3,54.9,58.2,46.2,25.3,90,48,12,30.09,29.94,11,3,11,0.00
2013-7-10,99.1,82.1,59.9,56.3,46.8,35.2,72,36,15,29.95,29.75,12,3,16,0.00
2013-7-11,89.6,73.8,59.0,56.8,44.1,28.3,76,43,16,29.88,29.78,12,3,14,0.00
2013-7-12,87.1,69.3,51.8,48.7,36.5,19.5,79,38,14,29.91,29.81,14,3,14,0.00
2013-7-13,87.6,68.3,51.1,43.5,36.4,13.2,68,39,11,30.09,29.91,13,3,13,0.00
2013-7-14,97.0,72.1,52.5,50.2,40.5,18.6,80,43,10,30.09,29.87,9,3,11,0.00
2013-7-15,96.1,74.2,53.8,51.8,39.9,17.4,79,40,10,29.95,29.83,12,3,12,0.00
2013-7-16,99.7,76.5,56.3,58.8,50.5,42.9,77,47,20,29.91,29.73,12,3,14,0.00
2013-7-17,97.9,81.7,66.9,63.5,52.9,35.5,79,45,16,30.04,29.79,13,4,24,0.00
2013-7-18,101.7,77.3,58.3,58.8,43.4,21.2,83,43,10,30.10,29.96,12,3,12,0.00
2013-7-19,102.0,78.4,56.8,55.3,39.5,21.3,77,37,10,30.04,29.88,12,3,17,0.00
2013-7-20,103.5,78.7,57.0,54.9,39.5,20.7,76,36,10,29.94,29.77,15,3,15,0.00
2013-7-21,103.6,78.2,55.4,53.3,36.9,19.8,75,34,10,29.86,29.72,12,3,14,0.00
2013-7-22,100.8,77.7,55.6,54.6,38.5,21.5,77,35,10,29.91,29.78,12,3,15,0.00
2013-7-23,104.5,79.3,56.5,53.7,37.5,20.2,78,35,10,30.00,29.85,17,3,17,0.00
2013-7-24,105.6,80.2,58.6,53.6,37.8,20.9,76,34,10,29.98,29.86,11,3,14,0.00
2013-7-25,105.8,80.7,59.5,54.1,38.4,21.4,72,33,10,30.00,29.91,14,3,14,0.00
2013-7-26,105.6,79.1,56.1,53.5,34.4,19.5,74,31,10,30.06,29.88,10,3,10,0.00
2013-7-27,95.7,80.4,58.6,52.3,30.6,17.0,69,24,10,29.99,29.81,17,4,17,0.00
2013-7-28,95.9,67.8,53.8,48.7,38.3,17.0,67,42,10,29.87,29.75,13,2,17,0.00
2013-7-29,95.4,73.4,52.3,49.8,35.0,16.2,72,35,10,29.90,29.81,11,3,12,0.00
2013-7-30,96.4,75.8,60.6,95.4,38.0,17.0,63,34,10,30.03,29.88,11,3,12,0.00
2013-7-31,98.8,77.5,57.4,53.1,42.4,19.8,71,38,10,30.05,29.84,15,3,15,0.00
2013-8-1,86.9,67.9,57.9,57.6,50.1,42.3,97,59,25,29.94,29.81,16,3,17,0.26
2013-8-2,78.4,63.6,56.7,61.3,57.0,53.5,97,81,51,30.01,29.90,11,2,11,0.12
2013-8-3,84.9,67.3,54.0,59.0,55.2,52.8,97,70,36,30.07,29.97,12,3,13,0.00
2013-8-4,95.2,72.5,54.5,58.6,50.3,36.7,96,57,17,30.04,29.88,12,3,15,0.00
2013-8-5,98.6,77.9,57.2,58.0,48.6,27.0,86,46,12,29.96,29.83,14,4,15,0.00
2013-8-6,99.9,78.0,57.0,58.3,45.3,21.2,86,44,10,29.97,29.83,14,3,15,0.00
2013-8-7,101.8,78.1,57.6,59.4,42.3,20.5,85,42,10,29.94,29.80,11,3,11,0.00
2013-8-8,100.9,77.0,58.1,54.5,44.6,22.5,75,41,10,29.95,29.78,14,3,14,0.00
2013-8-9,101.1,79.2,62.6,58.2,48.2,36.4,73,41,15,29.87,29.73,14,3,14,0.00
2013-8-10,99.3,79.4,59.5,54.6,47.6,35.3,74,40,15,29.91,29.76,14,3,14,0.00
2013-8-11,96.4,78.6,63.7,56.5,49.4,33.3,69,41,21,29.96,29.84,12,3,12,0.00
2013-8-12,99.3,79.4,60.8,58.6,48.0,33.1,83,41,16,29.97,29.84,17,4,17,0.00
2013-8-13,97.9,79.6,63.7,57.1,47.7,34.9,65,39,15,30.03,29.89,11,3,11,0.00
2013-8-14,105.3,80.3,59.5,57.4,46.2,22.2,81,42,10,29.96,29.76,11,3,11,0.00
2013-8-15,104.0,86.1,69.6,55.9,42.0,22.9,56,28,10,29.94,29.77,11,3,11,0.00
2013-8-16,100.0,80.6,62.6,54.3,47.9,36.1,64,38,15,29.96,29.86,15,3,15,0.00
2013-8-17,98.2,78.9,62.4,63.6,55.5,45.8,91,51,21,30.00,29.86,38,3,38,0.07
2013-8-18,97.3,76.8,59.4,58.8,47.3,33.1,77,44,16,30.05,29.91,18,3,18,0.00
2013-8-19,96.3,75.8,56.7,55.8,44.1,30.1,78,42,14,30.03,29.88,17,3,17,0.00
2013-8-20,94.3,73.2,56.7,51.7,39.0,14.5,74,39,10,30.04,29.91,17,3,17,0.00
2013-8-21,97.9,73.4,50.9,47.5,33.2,17.0,72,33,10,30.04,29.88,14,3,14,0.00
2013-8-22,93.0,75.6,61.0,59.3,47.2,35.3,75,42,21,29.94,29.75,17,3,17,0.01
2013-8-23,91.2,73.9,60.3,61.2,54.1,47.4,88,57,27,29.91,29.75,16,3,16,0.02
2013-8-24,96.6,73.7,54.9,57.8,48.9,38.8,89,50,19,29.84,29.66,16,3,16,0.00
2013-8-25,95.2,74.2,59.0,65.7,48.2,40.2,80,47,19,29.99,29.71,16,3,16,0.06
2013-8-26,92.7,72.0,54.9,60.3,51.2,36.6,98,59,18,29.97,29.79,18,3,18,0.02
2013-8-27,95.5,79.8,55.9,55.7,47.5,35.8,80,38,18,29.95,29.73,11,4,11,0.00
2013-8-28,98.4,77.8,62.6,57.6,50.1,36.1,71,45,16,29.86,29.73,16,3,16,0.00
2013-8-29,94.5,75.2,61.3,64.8,51.5,35.2,81,51,17,29.99,29.83,12,2,12,0.01
2013-8-30,91.9,72.9,57.0,59.0,50.8,45.9,85,52,25,30.10,29.97,11,2,11,0.00
2013-8-31,99.7,75.5,54.9,57.7,46.4,31.2,88,46,14,30.05,29.83,11,3,11,0.00
2013-9-1,99.0,76.4,57.6,52.7,45.3,27.8,73,41,12,29.88,29.74,13,3,13,0.00
2013-9-2,93.0,75.5,68.0,58.4,52.3,42.5,66,48,24,29.87,29.75,14,2,18,0.00
2013-9-3,86.7,72.7,65.7,67.9,60.9,56.5,86,68,49,30.00,29.87,10,2,10,0.04
2013-9-4,97.9,78.1,62.2,65.5,57.9,46.0,95,59,21,29.97,29.84,16,3,16,0.20
2013-9-5,85.8,69.7,61.5,68.8,62.8,57.8,97,80,55,30.04,29.80,17,3,17,0.19
2013-9-6,82.8,67.0,58.8,58.9,54.1,50.3,88,67,37,30.08,29.89,24,3,24,0.00
2013-9-7,86.7,68.5,53.6,57.5,51.4,43.1,91,60,26,30.09,29.92,12,2,14,0.00
2013-9-8,80.1,66.8,56.7,55.9,51.1,45.2,84,61,33,30.03,29.94,14,3,14,0.00
2013-9-9,91.2,70.5,54.5,56.1,50.3,44.0,85,56,24,30.02,29.89,17,3,17,0.00
2013-9-10,98.1,73.8,54.0,56.8,47.0,21.3,93,51,10,30.02,29.88,11,3,11,0.00
2013-9-11,104.9,83.6,59.5,54.4,42.7,22.5,75,33,10,30.02,29.88,13,3,13,0.00
2013-9-12,102.0,80.6,65.1,53.8,44.2,22.2,60,35,10,29.96,29.80,13,3,14,0.00
2013-9-13,99.3,78.5,62.2,56.8,49.2,34.6,72,43,16,29.85,29.70,17,2,17,0.00
2013-9-14,99.3,78.6,60.4,57.2,48.5,38.9,74,42,17,29.86,29.75,13,3,13,0.00
2013-9-15,99.1,80.6,65.5,59.8,46.6,38.1,66,37,17,29.81,29.60,19,4,25,0.01
2013-9-16,85.5,69.9,60.4,58.8,51.5,43.3,86,57,27,29.86,29.67,15,3,15,0.00
2013-9-17,73.9,58.9,51.4,53.4,49.8,46.4,98,74,44,29.82,29.61,25,3,25,0.33
2013-9-18,71.8,55.5,48.0,54.5,49.1,41.2,99,83,37,30.06,29.77,14,2,14,0.17
2013-9-19,81.0,58.9,43.0,49.4,41.4,18.6,99,64,15,30.12,29.90,13,3,13,0.01
2013-9-20,91.6,64.2,42.4,48.4,39.3,15.2,96,54,10,29.91,29.51,13,3,13,0.00
2013-9-21,75.4,62.4,52.3,50.6,44.9,39.1,77,56,32,29.72,29.56,9,2,9,0.00
2013-9-22,69.8,57.9,50.9,51.4,47.7,45.3,97,70,48,29.75,29.63,10,2,10,0.04
2013-9-23,69.6,56.7,46.9,54.2,47.0,40.5,99,75,38,29.93,29.75,12,2,13,0.01
2013-9-24,61.2,52.3,47.3,54.2,49.8,45.9,99,92,64,29.91,29.74,8,1,8,0.46
2013-9-25,54.5,48.8,45.1,48.7,46.5,44.8,99,93,73,29.79,29.73,10,2,10,0.25
2013-9-26,64.9,50.5,44.4,50.6,45.7,41.2,99,85,50,29.99,29.78,11,2,11,0.00
2013-9-27,58.5,42.8,0.0,58.2,46.4,41.5,99,77,68,30.03,29.93,6,2,7,0.01
2013-9-28,62.6,54.2,48.2,52.0,47.6,45.3,92,80,57,29.93,29.52,16,3,16,0.12
2013-9-29,63.3,50.0,45.7,51.6,46.8,44.3,96,89,56,29.73,29.50,21,2,21,0.38
2013-9-30,63.7,54.0,42.6,48.6,41.7,36.1,97,66,40,29.92,29.49,17,4,17,0.18
2013-10-1,65.7,47.9,38.3,50.2,42.5,37.5,98,84,41,30.13,29.90,16,2,18,0.11
2013-10-2,63.5,47.3,38.1,45.7,39.8,36.2,99,79,41,30.14,29.91,8,2,8,0.00
2013-10-3,62.4,45.6,37.0,48.2,39.7,34.1,97,82,48,30.32,29.93,17,3,17,0.13
2013-10-4,66.9,45.4,34.0,44.8,35.7,27.1,98,75,27,30.46,30.32,8,2,8,0.00
2013-10-5,70.9,48.4,32.4,42.1,36.3,31.1,97,69,30,30.40,30.22,9,2,9,0.00
2013-10-6,78.1,52.8,34.5,45.0,38.4,33.2,97,66,23,30.24,29.91,11,3,11,0.00
2013-10-7,68.5,50.8,38.3,49.3,40.2,35.3,97,70,38,29.95,29.84,20,3,20,0.00
2013-10-8,53.2,45.4,39.2,44.9,40.9,36.0,98,85,68,29.94,29.87,8,1,8,0.05
2013-10-9,61.2,45.1,36.9,45.5,40.3,36.4,99,85,51,30.00,29.86,8,1,8,0.01
2013-10-10,61.5,49.6,40.6,45.3,40.9,37.8,92,74,46,29.94,29.83,8,1,8,0.00
2013-10-11,61.3,48.8,42.3,45.9,41.9,38.5,93,79,53,30.05,29.93,6,1,6,0.00
2013-10-12,61.9,47.7,40.1,46.5,40.7,37.4,96,79,45,30.05,29.94,10,2,11,0.00
2013-10-13,60.8,44.1,36.7,44.3,39.5,33.2,97,85,53,30.22,30.04,8,1,8,0.00
2013-10-14,64.2,44.7,34.7,43.7,36.1,31.2,93,75,40,30.33,30.22,9,2,9,0.00
2013-10-15,65.8,44.9,32.0,41.7,35.1,29.3,99,74,29,30.36,30.13,8,2,8,0.01
2013-10-16,66.4,46.3,37.6,41.8,36.9,34.3,93,73,35,30.13,30.06,8,1,8,0.00
2013-10-17,65.7,46.1,36.0,44.4,37.3,34.0,95,75,38,30.22,30.11,9,2,9,0.00
2013-10-18,66.2,45.7,35.2,43.9,37.6,34.1,98,77,37,30.27,30.14,11,2,11,0.00
2013-10-19,66.9,45.7,34.3,44.7,37.8,33.3,97,77,39,30.16,30.02,9,1,9,0.00
2013-10-20,69.4,48.8,36.5,45.1,39.4,34.4,95,74,38,30.14,30.06,9,2,9,0.00
2013-10-21,72.1,50.4,37.9,48.1,41.8,37.1,97,76,41,30.21,30.09,8,2,8,0.00
2013-10-22,71.4,51.2,39.7,50.0,43.2,39.1,98,78,46,30.19,30.03,9,2,9,0.00
2013-10-23,74.3,52.0,40.3,49.2,43.1,39.5,98,76,40,30.12,30.00,10,2,10,0.00
2013-10-24,75.2,50.5,39.2,47.0,42.1,38.2,97,77,37,30.10,30.00,9,2,9,0.00
2013-10-25,75.7,50.8,37.8,47.7,42.1,37.3,99,77,36,30.21,30.08,9,2,9,0.00
2013-10-26,70.7,49.7,39.0,46.1,41.3,38.0,98,77,38,30.26,30.02,9,2,9,0.00
2013-10-27,57.4,46.0,36.9,46.0,40.3,31.0,98,82,53,30.02,29.64,20,2,20,0.00
2013-10-28,57.9,46.4,37.2,31.0,21.6,18.3,53,40,25,29.83,29.72,20,5,20,0.00
2013-10-29,54.7,41.8,27.1,28.4,23.6,19.0,80,52,31,29.97,29.81,10,2,10,0.00
2013-10-30,58.1,38.8,25.3,33.7,27.3,22.6,94,67,33,30.05,29.97,11,2,11,0.00
2013-10-31,44.8,38.6,34.0,40.8,34.9,27.4,97,87,73,30.14,30.01,4,0,4,0.00
2013-11-1,62.4,44.8,35.1,46.0,39.2,34.4,99,83,51,30.23,29.96,9,2,9,0.00
2013-11-2,56.7,42.8,38.3,52.6,39.3,30.8,99,88,62,29.96,29.65,11,1,11,0.21
2013-11-3,44.8,36.9,32.4,40.4,33.3,29.8,97,87,71,29.96,29.80,8,1,8,0.12
2013-11-4,48.7,35.3,31.6,37.5,32.8,31.3,99,91,61,30.10,29.94,8,1,8,0.29
2013-11-5,34.0,32.4,28.9,32.8,31.4,27.4,99,96,88,30.16,30.08,4,1,4,0.01
2013-11-6,43.9,37.8,32.5,41.6,37.0,32.3,99,97,90,30.29,30.14,4,1,4,0.15
2013-11-7,44.4,41.1,38.5,44.2,40.7,38.0,99,99,95,30.19,29.74,12,1,12,0.52
2013-11-8,49.1,40.9,34.7,45.2,39.8,34.4,99,96,85,30.12,29.90,4,0,4,0.02
2013-11-9,48.4,40.1,34.0,41.6,37.7,33.7,99,91,75,30.16,30.05,6,1,6,0.01
2013-11-10,55.8,43.7,39.0,46.4,41.3,38.5,99,92,70,30.16,30.05,7,1,7,0.00
2013-11-11,61.3,46.9,39.7,48.6,43.0,39.2,99,88,61,30.26,30.15,9,2,9,0.01
2013-11-12,47.7,42.5,36.3,44.1,41.1,36.1,99,95,82,30.29,30.17,6,1,6,0.02
2013-11-13,54.3,43.9,37.4,48.8,42.3,37.1,99,94,76,30.32,30.19,5,1,5,0.00
2013-11-14,39.7,38.9,37.6,39.5,38.6,37.3,99,99,98,30.20,30.13,2,0,2,0.00
2013-11-15,50.0,39.5,33.1,40.7,34.6,30.9,99,84,64,29.81,29.38,11,2,11,0.41
2013-11-16,47.5,37.6,32.9,37.0,33.2,30.4,99,85,62,29.67,29.24,21,2,21,0.33
2013-11-17,54.9,40.4,33.1,43.0,35.5,31.0,99,83,59,29.94,29.67,9,1,9,0.06
2013-11-18,41.4,36.3,31.6,37.7,34.1,30.0,97,92,79,29.95,29.74,5,1,5,0.01
2013-11-19,45.1,40.8,36.3,44.9,40.4,35.8,99,98,96,29.74,29.64,7,0,7,0.26
2013-11-20,43.5,33.0,21.0,39.0,22.3,14.5,97,68,36,30.31,29.74,13,2,13,0.01
2013-11-21,43.0,27.4,18.3,29.0,19.9,14.1,95,76,45,30.59,30.31,8,1,8,0.00
2013-11-22,46.0,27.9,18.0,26.0,21.0,16.3,95,78,43,30.65,30.51,7,1,7,0.00
2013-11-23,46.6,28.9,19.6,28.7,22.7,-25.0,97,80,14,30.52,30.24,8,1,8,3.45
2013-11-24,50.0,28.3,21.7,34.1,25.0,20.8,98,88,53,30.27,30.18,5,0,5,0.00
2013-11-25,50.0,37.7,26.6,35.3,30.9,25.9,99,78,55,30.37,30.27,8,2,8,0.00
2013-11-26,50.4,37.3,28.8,37.4,31.8,27.9,97,82,61,30.24,30.10,9,2,9,0.00
2013-11-27,46.2,33.2,27.9,36.8,30.9,27.1,99,92,68,30.14,30.01,8,1,8,0.00
2013-11-28,43.7,30.3,26.6,38.0,29.4,26.4,99,97,74,30.16,30.06,5,1,5,0.00
2013-11-29,40.5,32.7,28.0,35.6,31.1,27.8,99,94,78,30.21,30.14,7,1,7,0.02
2013-11-30,40.5,37.0,34.7,39.7,36.7,34.2,99,99,96,30.23,30.12,4,0,4,0.02
2013-12-1,45.9,41.1,36.7,45.6,40.9,36.4,99,99,99,30.12,29.67,6,0,6,0.66
2013-12-2,45.3,35.7,26.1,45.1,32.6,24.8,99,89,58,29.84,29.59,26,2,26,0.08
2013-12-3,37.4,24.7,13.5,27.7,16.5,7.0,98,73,44,30.12,29.82,8,1,8,0.06
2013-12-4,32.5,16.4,7.7,19.1,7.7,4.4,86,71,38,30.22,30.11,8,1,8,0.00
2013-12-5,28.9,12.4,5.0,13.3,5.7,1.8,90,76,42,30.22,30.12,7,1,7,0.00
2013-12-6,27.5,13.3,4.5,12.8,5.0,-0.7,90,71,51,30.14,30.00,11,1,11,0.00
2013-12-7,24.4,10.5,-0.9,5.4,-0.9,-5.2,81,61,38,30.26,29.97,11,1,11,0.00
2013-12-8,15.1,6.5,-2.7,6.9,1.3,-6.5,87,79,64,30.43,30.25,2,0,2,0.00
2013-12-9,27.1,14.4,6.8,18.8,10.8,2.8,90,85,68,30.42,30.28,4,1,4,0.00
2013-12-10,27.7,23.1,18.7,23.5,20.6,16.3,95,90,82,30.37,30.26,2,0,2,0.00
2013-12-11,25.5,24.9,24.4,23.3,22.9,22.5,93,92,90,30.37,30.34,2,0,3,0.00
2013-12-30,33.3,33.0,32.5,33.0,32.7,32.3,99,99,99,30.09,30.07,4,1,4,0.14
2013-12-31,40.6,34.5,29.5,40.4,34.2,29.2,99,99,96,30.27,30.04,2,0,2,0.02
2014-1-1,45.3,33.7,30.0,38.7,32.5,29.4,99,96,76,30.37,30.26,8,1,8,0.00
2014-1-2,37.9,33.7,28.6,36.1,32.8,28.3,99,97,90,30.27,29.77,4,1,4,0.00